Fulton, NY

1:53 AM EST on February 20, 2017 (GMT -0500)
Oswego County

Weather History for KFZY - April, 2014

Change the Weather History Date:

Monday, April 7, 2014

  Actual Average (KSYR) Record (KSYR)
Temperature  
Mean Temperature 44 °F -  
Max Temperature 52 °F 51 °F 85 °F (1991)
Min Temperature 35 °F 32 °F 9 °F (1972)
Degree Days  
Heating Degree Days 22    
Moisture  
Dew Point 30 °F    
Average Humidity 67    
Maximum Humidity 87    
Minimum Humidity 30    
Precipitation  
Precipitation 0.42 in - - ()
Sea Level Pressure  
Sea Level Pressure 29.90 in    
Wind  
Wind Speed 7 mph (ESE)    
Max Wind Speed 17 mph    
Max Gust Speed 34 mph    
Visibility 9 miles    
Events Rain    
Averages and records for this station are not official NWS values.
T = Trace of Precipitation, MM = Missing Value Source: NWS Daily Summary

Daily Weather History Graph

Daily Weather History Graph

Search for Another Location

Airport or City:

Trip Planner

Search our weather history database for the weather conditions in past years. The results will help you decide how hot, cold, wet, or windy it might be!

Date:

Astronomy

Apr. 07, 2014 Rise Set
Actual Time 6:36 AM EDT 7:39 PM EDT
Civil Twilight 6:07 AM EDT 8:08 PM EDT
Nautical Twilight 5:32 AM EDT 8:43 PM EDT
Astronomical Twilight 4:56 AM EDT 9:19 PM EDT
Moon 12:26 PM EDT (4/7) 2:19 AM EDT (4/7)
Length of Visible Light 14h 00m
Length of Day
13h 02m
First Quarter, 53% of the Moon is Illuminated
Apr 7
First Quarter
Apr 15
Full
Apr 22
Last Quarter
Apr 29
New
May 6
First Quarter

Hourly Weather History & Observations

Time (EDT) Temp. Windchill Dew Point Humidity Pressure Visibility Wind Dir Wind Speed Gust Speed Precip Events Conditions
12:54 AM 39.9 °F 37.8 °F 23.0 °F 51% 30.14 in 10.0 mi Variable 3.5 mph - N/A   Clear
1:54 AM 37.9 °F 35.5 °F 23.0 °F 55% 30.13 in 10.0 mi Variable 3.5 mph - N/A   Clear
2:54 AM 39.0 °F 35.7 °F 23.0 °F 53% 30.11 in 10.0 mi ESE 4.6 mph - N/A   Clear
3:54 AM 37.0 °F 33.3 °F 21.9 °F 54% 30.11 in 10.0 mi ESE 4.6 mph - N/A   Clear
4:54 AM 37.0 °F 31.6 °F 21.9 °F 54% 30.10 in 10.0 mi ESE 6.9 mph - N/A   Clear
5:54 AM 36.0 °F 32.1 °F 23.0 °F 59% 30.08 in 10.0 mi ESE 4.6 mph - N/A   Clear
6:54 AM 35.1 °F 30.1 °F 23.0 °F 61% 30.08 in 10.0 mi East 5.8 mph - N/A   Clear
7:54 AM 39.0 °F 35.7 °F 23.0 °F 53% 30.09 in 10.0 mi ESE 4.6 mph - N/A   Clear
8:54 AM 43.0 °F 40.3 °F 24.1 °F 47% 30.09 in 10.0 mi ESE 4.6 mph - N/A   Clear
9:54 AM 45.0 °F 41.8 °F 25.0 °F 46% 30.07 in 10.0 mi SE 5.8 mph - N/A   Clear
10:54 AM 48.0 °F - 25.0 °F 41% 30.04 in 10.0 mi SE 9.2 mph - N/A   Clear
11:54 AM 48.9 °F - 25.0 °F 39% 30.03 in 10.0 mi SE 11.5 mph 19.6 mph N/A   Clear
12:54 PM 51.1 °F - 23.0 °F 33% 30.00 in 10.0 mi SSE 9.2 mph 18.4 mph N/A   Scattered Clouds
1:54 PM 52.0 °F - 21.0 °F 30% 29.98 in 10.0 mi South 12.7 mph 19.6 mph N/A   Mostly Cloudy
2:54 PM 43.0 °F 38.2 °F 34.0 °F 71% 30.00 in 8.0 mi SSE 8.1 mph 19.6 mph 0.01 in Rain Light Rain
3:54 PM 42.1 °F 37.1 °F 36.0 °F 79% 29.97 in 6.0 mi SE 8.1 mph - 0.03 in Rain Light Rain
4:54 PM 41.0 °F 36.4 °F 37.0 °F 86% 29.96 in 6.0 mi SE 6.9 mph - 0.04 in Rain Light Rain
5:54 PM 41.0 °F 35.8 °F 36.0 °F 82% 29.91 in 7.0 mi ESE 8.1 mph - 0.03 in Rain Light Rain
6:54 PM 39.9 °F 33.4 °F 35.1 °F 83% 29.84 in 5.0 mi East 10.4 mph 21.9 mph 0.12 in Rain Rain
7:14 PM 39.9 °F 33.9 °F 36.0 °F 86% 29.81 in 2.5 mi ESE 9.2 mph - 0.07 in Rain Rain
7:30 PM 39.9 °F 33.4 °F 36.0 °F 86% 29.79 in 4.0 mi ESE 10.4 mph 20.7 mph 0.10 in Rain Rain
7:54 PM 39.9 °F 32.9 °F 36.0 °F 86% 29.76 in 6.0 mi ESE 11.5 mph 24.2 mph 0.14 in Rain Light Rain
8:01 PM 39.9 °F 32.5 °F 36.0 °F 86% 29.75 in 5.0 mi ESE 12.7 mph 26.5 mph 0.00 in Rain Light Rain
8:32 PM 39.9 °F 32.5 °F 36.0 °F 86% 29.71 in 10.0 mi ESE 12.7 mph 24.2 mph 0.00 in   Overcast
8:54 PM 39.9 °F 32.1 °F 36.0 °F 86% 29.69 in 7.0 mi ESE 13.8 mph 27.6 mph 0.00 in Rain Light Rain
9:30 PM 39.9 °F 31.4 °F 35.1 °F 83% 29.65 in 9.0 mi ESE 16.1 mph 29.9 mph 0.00 in Rain Light Rain
9:51 PM 39.2 °F 31.2 °F 35.6 °F 87% 29.65 in 10.0 mi ESE 13.8 mph 34.5 mph 0.00 in   Overcast
9:54 PM 39.9 °F 31.1 °F 35.1 °F 83% 29.67 in 10.0 mi ESE 17.3 mph 34.5 mph 0.00 in   Overcast
10:54 PM 39.9 °F 32.1 °F 35.1 °F 83% 29.58 in 10.0 mi ESE 13.8 mph 25.3 mph 0.05 in Rain Light Rain
11:04 PM 39.9 °F 32.1 °F 35.1 °F 83% 29.56 in 10.0 mi ESE 13.8 mph 27.6 mph 0.00 in Rain Light Rain
11:54 PM 41.0 °F 32.8 °F 35.1 °F 79% 29.52 in 10.0 mi ESE 16.1 mph 27.6 mph 0.00 in   Overcast